CW1035 Weather Reports


Display with metric or nautical units.
time (UTC)temp
F
wind
direction
speed
MPH
gust
MPH
rain 1hr
in
rain 24hr
in
rain mn
in
humidity
%
barometer
mb
20260510141149 52 262 4.0 9.0 0.00 0.00 0.00 82 1018.5
20260510140649 52 295 5.0 10.0 0.00 0.00 0.00 82 1018.2
20260510140148 52 283 8.0 10.0 0.00 0.00 0.00 82 1018.2
20260510135649 52 271 3.0 10.0 0.00 0.00 0.00 83 1018.2
20260510135148 52 281 6.0 7.0 0.00 0.00 0.00 83 1018.6
20260510134649 52 236 1.0 8.0 0.00 0.00 0.00 83 1018.5
20260510134149 52 273 1.0 8.0 0.00 0.00 0.00 83 1018.4
20260510133649 52 293 4.0 13.0 0.00 0.00 0.00 83 1018.0
20260510132648 52 314 5.0 20.0 0.00 0.00 0.00 83 1018.2
20260510132148 51 262 7.0 15.0 0.00 0.00 0.00 83 1018.3
20260510131648 51 264 2.0 12.0 0.00 0.00 0.00 83 1018.3
20260510131148 51 229 2.0 12.0 0.00 0.00 0.00 83 1018.2
20260510130648 51 226 4.0 7.0 0.00 0.00 0.00 83 1018.1
20260510130148 51 327 3.0 9.0 0.00 0.00 0.00 83 1018.2
20260510125647 51 243 2.0 9.0 0.00 0.00 0.00 83 1018.2
20260510125147 51 250 3.0 11.0 0.00 0.00 0.00 83 1018.0
20260510124647 51 264 7.0 11.0 0.00 0.00 0.00 83 1017.9
20260510124147 51 287 4.0 10.0 0.00 0.00 0.00 83 1018.0
20260510123647 51 243 8.0 9.0 0.00 0.00 0.00 83 1018.0
20260510123147 52 311 2.0 10.0 0.00 0.00 0.00 83 1017.9
20260510122647 52 264 1.0 12.0 0.00 0.00 0.00 83 1017.8
20260510122147 52 248 1.0 12.0 0.00 0.00 0.00 83 1017.7
20260510121147 52 252 3.0 14.0 0.00 0.00 0.00 82 1017.7
20260510120646 52 233 4.0 14.0 0.00 0.00 0.00 82 1017.7
20260510120147 52 289 7.0 14.0 0.00 0.00 0.00 82 1017.6
20260510115647 52 334 5.0 15.0 0.00 0.00 0.00 82 1017.8
20260510114646 52 308 2.0 12.0 0.00 0.00 0.00 82 1017.7
20260510114147 51 233 5.0 13.0 0.00 0.00 0.00 83 1017.6
20260510113646 51 336 6.0 13.0 0.00 0.00 0.00 83 1017.6
20260510112646 51 283 4.0 11.0 0.00 0.00 0.00 83 1017.7
20260510111646 51 241 3.0 13.0 0.00 0.00 0.00 84 1017.6
20260510111146 51 326 1.0 11.0 0.00 0.00 0.00 84 1017.6
20260510110646 51 293 4.0 14.0 0.00 0.00 0.00 84 1017.6
20260510105645 51 266 3.0 16.0 0.00 0.00 0.00 84 1017.6
20260510105145 51 286 6.0 16.0 0.00 0.00 0.00 84 1017.6
20260510104645 51 301 3.0 13.0 0.00 0.00 0.00 84 1017.5
20260510104145 51 218 3.0 13.0 0.00 0.00 0.00 84 1017.5
20260510103145 51 315 2.0 12.0 0.00 0.00 0.00 84 1017.4
20260510102145 51 286 7.0 13.0 0.00 0.00 0.00 84 1017.4
20260510101645 51 269 6.0 16.0 0.00 0.00 0.00 84 1017.4
20260510100144 51 281 2.0 12.0 0.00 0.00 0.00 84 1017.4
20260510095144 52 203 4.0 15.0 0.00 0.00 0.00 84 1017.4
20260510094645 51 245 9.0 15.0 0.00 0.00 0.00 84 1017.4
20260510094144 52 207 3.0 12.0 0.00 0.00 0.00 84 1017.4
20260510093644 52 315 1.0 13.0 0.00 0.00 0.00 84 1017.5
20260510093144 52 26 3.0 15.0 0.00 0.00 0.00 84 1017.4
20260510092644 52 307 4.0 17.0 0.00 0.00 0.00 84 1017.5
20260510092144 52 248 8.0 17.0 0.00 0.00 0.00 84 1017.5
20260510091644 52 269 3.0 13.0 0.00 0.00 0.00 84 1017.5
20260510091144 52 293 12.0 13.0 0.00 0.00 0.00 84 1017.4
20260510090644 52 288 4.0 11.0 0.00 0.00 0.00 84 1017.5
20260510090144 52 271 10.0 11.0 0.00 0.00 0.00 84 1017.4
20260510085644 52 271 3.0 15.0 0.00 0.00 0.00 84 1017.3
20260510085143 52 255 1.0 15.0 0.00 0.00 0.00 84 1017.4
20260510084643 52 276 15.0 15.0 0.00 0.00 0.00 84 1017.4
20260510084143 52 257 4.0 12.0 0.00 0.00 0.00 84 1017.4
20260510083643 52 222 5.0 13.0 0.00 0.00 0.00 84 1017.4
20260510083143 52 291 1.0 13.0 0.00 0.00 0.00 84 1017.3
20260510082643 52 275 3.0 14.0 0.00 0.00 0.00 85 1017.2
20260510082142 52 252 5.0 14.0 0.00 0.00 0.00 85 1017.3
20260510081643 52 264 4.0 14.0 0.00 0.00 0.00 85 1017.3
20260510081143 52 293 1.0 12.0 0.00 0.00 0.00 85 1017.2
20260510080643 52 302 7.0 15.0 0.00 0.00 0.00 85 1017.3
20260510075642 52 270 8.0 14.0 0.00 0.00 0.00 86 1017.3
20260510075142 52 256 4.0 11.0 0.00 0.00 0.00 86 1017.3
20260510074642 52 255 2.0 11.0 0.00 0.00 0.00 86 1017.2
20260510073642 52 257 5.0 14.0 0.00 0.00 0.00 86 1017.3
20260510073142 52 300 5.0 11.0 0.00 0.00 0.00 86 1017.2
20260510072642 52 276 6.0 13.0 0.00 0.00 0.00 86 1017.2
20260510072142 52 331 4.0 13.0 0.00 0.00 0.00 86 1017.2
20260510071642 52 257 4.0 12.0 0.00 0.00 0.00 86 1017.2
20260510071142 52 276 8.0 14.0 0.00 0.00 0.00 86 1017.3
20260510070642 52 292 3.0 14.0 0.00 0.00 0.00 86 1017.4
20260510070212 52 336 9.0 13.0 0.00 0.00 0.00 86 1017.4
20260510065641 52 257 5.0 12.0 0.00 0.00 0.00 85 1017.4
20260510065141 52 255 4.0 12.0 0.00 0.00 0.00 85 1017.3
20260510064641 52 207 1.0 15.0 0.00 0.00 0.00 85 1017.4
20260510064141 52 308 5.0 15.0 0.00 0.00 0.00 85 1017.3
20260510063641 52 268 8.0 12.0 0.00 0.00 0.00 85 1017.4
20260510063141 52 285 4.0 11.0 0.00 0.00 0.00 85 1017.4
20260510062641 52 280 2.0 12.0 0.00 0.00 0.00 85 1017.3
20260510061711 52 311 4.0 11.0 0.00 0.00 0.00 85 1017.2
20260510061141 52 250 3.0 8.0 0.00 0.00 0.00 85 1017.3
20260510060210 52 272 5.0 13.0 0.00 0.00 0.00 86 1017.3
20260510055210 52 263 5.0 11.0 0.00 0.00 0.00 86 1017.1
20260510054640 52 248 5.0 12.0 0.00 0.00 0.00 86 1017.1
20260510054140 52 283 10.0 12.0 0.00 0.00 0.00 86 1017.1
20260510053140 52 246 6.0 14.0 0.00 0.00 0.00 86 1017.2
20260510052640 52 275 6.0 14.0 0.00 0.00 0.00 86 1017.2
20260510051709 52 283 5.0 11.0 0.00 0.00 0.00 86 1017.3
20260510051209 53 255 9.0 11.0 0.00 0.00 0.00 86 1017.3
20260510045639 53 237 7.0 12.0 0.00 0.00 0.00 84 1017.5
20260510045139 54 278 5.0 10.0 0.00 0.00 0.00 83 1017.5
20260510044639 54 290 6.0 11.0 0.00 0.00 0.00 82 1017.5
20260510044139 55 295 7.0 11.0 0.00 0.00 0.00 79 1017.5
20260510043639 56 341 2.0 8.0 0.00 0.00 0.00 76 1017.5
20260510043209 57 266 1.0 2.0 0.00 0.00 0.00 75 1017.4
20260510042708 57 267 0.0 2.0 0.00 0.00 0.00 74 1017.4
20260510042209 58 270 1.0 2.0 0.00 0.00 0.00 74 1017.4
20260510041138 58 265 0.0 3.0 0.00 0.00 0.00 73 1017.3
20260510040639 58 265 1.0 3.0 0.00 0.00 0.00 73 1017.2
20260510040209 58 266 2.0 2.0 0.00 0.00 0.00 73 1017.2
20260510035708 58 266 1.0 3.0 0.00 0.00 0.00 72 1017.2
20260510035208 58 264 2.0 3.0 0.00 0.00 0.00 72 1017.1
20260510034638 58 270 1.0 2.0 0.00 0.00 0.00 72 1017.1
20260510034208 59 270 2.0 2.0 0.00 0.00 0.00 72 1017.1
20260510033638 59 270 1.0 2.0 0.00 0.00 0.00 71 1017.2
20260510032638 60 270 0.0 1.0 0.00 0.00 0.00 71 1017.1
20260510032207 60 270 0.0 2.0 0.00 0.00 0.00 71 1017.1
20260510031708 61 270 1.0 2.0 0.00 0.00 0.00 72 1017.2
20260510031137 61 270 0.0 1.0 0.00 0.00 0.00 70 1017.2
20260510030208 62 270 0.0 1.0 0.00 0.00 0.00 69 1017.3
20260510025707 62 270 0.0 1.0 0.00 0.00 0.00 69 1017.2
20260510025207 62 270 1.0 1.0 0.00 0.00 0.00 67 1017.2
20260510024707 63 270 0.0 1.0 0.00 0.00 0.00 67 1017.4
20260510024208 63 270 0.0 0.0 0.00 0.00 0.00 68 1017.4
20260510023207 62 166 0.0 0.0 0.00 0.00 0.00 70 1017.4
20260510022707 61 166 0.0 2.0 0.00 0.00 0.00 69 1017.4
20260510022207 61 166 0.0 2.0 0.00 0.00 0.00 69 1017.4
20260510021207 61 160 0.0 2.0 0.00 0.00 0.00 70 1017.5
20260510020706 61 160 0.0 2.0 0.00 0.00 0.00 69 1017.7
20260510020207 62 135 1.0 2.0 0.00 0.00 0.00 69 1017.7
20260510015706 62 115 0.0 2.0 0.00 0.00 0.00 69 1017.7
20260510015206 63 121 2.0 2.0 0.00 0.00 0.00 68 1017.9
20260510014706 63 203 1.0 2.0 0.00 0.00 0.00 66 1017.9
20260510014206 63 259 0.0 1.0 0.00 0.00 0.00 65 1017.9
20260510013206 62 259 0.0 1.0 0.00 0.00 0.00 66 1018.2
20260510012706 62 259 0.0 2.0 0.00 0.00 0.00 67 1018.2
20260510012206 61 259 0.0 3.0 0.00 0.00 0.00 67 1018.4
20260510011705 62 243 1.0 3.0 0.00 0.00 0.00 66 1018.6
20260510011205 61 290 0.0 4.0 0.00 0.00 0.00 66 1018.6
20260510010705 61 256 1.0 4.0 0.00 0.00 0.00 67 1018.7
20260510010206 61 271 1.0 5.0 0.00 0.00 0.00 67 1018.8
20260510005705 61 261 0.0 5.0 0.00 0.00 0.00 68 1018.8
20260510005205 61 300 4.0 5.0 0.00 0.00 0.00 67 1018.8
20260510004705 61 278 3.0 5.0 0.00 0.00 0.00 68 1018.9
20260510004205 61 259 2.0 6.0 0.00 0.00 0.00 68 1018.9
20260510003705 60 300 2.0 6.0 0.00 0.00 0.00 69 1019.0
20260510003205 61 298 2.0 5.0 0.00 0.00 0.00 69 1019.0
20260510002204 60 300 1.0 5.0 0.00 0.00 0.00 71 1019.0
20260510000704 60 302 3.0 4.0 0.00 0.00 0.00 71 1019.3
20260510000204 60 309 1.0 5.0 0.00 0.00 0.00 71 1019.3
20260509235705 60 248 4.0 5.0 0.00 0.00 0.00 71 1019.3
20260509235205 60 2 1.0 4.0 0.00 0.00 0.00 72 1019.5
20260509234704 60 299 3.0 4.0 0.00 0.00 0.00 72 1019.5
20260509234204 59 335 1.0 5.0 0.00 0.00 0.00 73 1019.5
20260509233704 59 276 2.0 6.0 0.00 0.00 0.00 73 1019.5
20260509233204 59 276 2.0 6.0 0.00 0.00 0.00 73 1019.7
20260509232203 59 316 5.0 6.0 0.00 0.00 0.00 75 1019.8
20260509231704 59 302 5.0 6.0 0.00 0.00 0.00 75 1019.8
20260509231203 58 262 3.0 7.0 0.00 0.00 0.00 76 1019.9
20260509230704 58 287 5.0 8.0 0.00 0.00 0.00 78 1020.0
20260509225704 58 274 4.0 8.0 0.00 0.00 0.00 78 1020.1
20260509225204 58 327 3.0 8.0 0.00 0.00 0.00 77 1020.2
20260509224703 58 273 2.0 6.0 0.00 0.00 0.00 78 1020.2
20260509224203 58 298 6.0 6.0 0.00 0.00 0.00 78 1020.4
20260509223703 58 265 6.0 7.0 0.00 0.00 0.00 78 1020.5
20260509223202 58 297 5.0 9.0 0.00 0.00 0.00 79 1020.6
20260509222702 57 8 3.0 10.0 0.00 0.00 0.00 79 1020.5
20260509222202 57 316 3.0 10.0 0.00 0.00 0.00 79 1020.7
20260509221702 57 271 8.0 9.0 0.00 0.00 0.00 80 1020.8
20260509221203 57 278 7.0 9.0 0.00 0.00 0.00 79 1020.8
20260509220203 57 264 7.0 10.0 0.00 0.00 0.00 79 1020.9
20260509215202 57 312 4.0 9.0 0.00 0.00 0.00 80 1021.0
20260509214702 57 320 2.0 10.0 0.00 0.00 0.00 80 1020.9
20260509214202 56 322 3.0 10.0 0.00 0.00 0.00 81 1020.9
20260509213701 57 302 3.0 11.0 0.00 0.00 0.00 80 1021.0
20260509213202 57 286 7.0 11.0 0.00 0.00 0.00 80 1021.0
20260509212701 57 293 2.0 10.0 0.00 0.00 0.00 81 1021.0
20260509212202 57 305 4.0 10.0 0.00 0.00 0.00 79 1021.1
20260509211701 57 264 2.0 10.0 0.00 0.00 0.00 81 1021.1
20260509211202 57 292 9.0 10.0 0.00 0.00 0.00 80 1021.4
20260509210701 56 299 4.0 10.0 0.00 0.00 0.00 80 1021.4
20260509210201 56 287 6.0 11.0 0.00 0.00 0.00 81 1021.4
20260509205201 57 276 4.0 9.0 0.00 0.00 0.00 80 1021.5
20260509204701 56 283 5.0 9.0 0.00 0.00 0.00 81 1021.5
20260509203701 56 288 7.0 8.0 0.00 0.00 0.00 81 1021.6
20260509203200 57 317 4.0 8.0 0.00 0.00 0.00 80 1021.4
20260509201700 57 263 1.0 7.0 0.00 0.00 0.00 80 1021.4
20260509201200 57 277 4.0 7.0 0.00 0.00 0.00 79 1021.4
20260509200700 57 305 3.0 7.0 0.00 0.00 0.00 79 1021.6
20260509200200 58 328 3.0 7.0 0.00 0.00 0.00 78 1021.7
20260509195200 57 269 3.0 5.0 0.00 0.00 0.00 79 1021.8
20260509194700 57 309 4.0 5.0 0.00 0.00 0.00 78 1021.9
20260509194200 57 254 1.0 5.0 0.00 0.00 0.00 78 1022.1
20260509193700 58 267 2.0 6.0 0.00 0.00 0.00 77 1022.1
20260509193159 58 307 5.0 6.0 0.00 0.00 0.00 77 1022.0
20260509192659 58 264 2.0 5.0 0.00 0.00 0.00 77 1022.0
20260509191159 59 30 2.0 4.0 0.00 0.00 0.00 77 1022.3
20260509190659 58 1 2.0 4.0 0.00 0.00 0.00 78 1022.4
20260509190159 58 19 3.0 4.0 0.00 0.00 0.00 77 1022.4
20260509185659 58 11 1.0 4.0 0.00 0.00 0.00 78 1022.3
20260509185159 58 69 3.0 6.0 0.00 0.00 0.00 79 1022.4
20260509184658 58 33 2.0 6.0 0.00 0.00 0.00 78 1022.3
20260509183658 58 77 2.0 4.0 0.00 0.00 0.00 78 1022.4
20260509183159 57 75 1.0 4.0 0.00 0.00 0.00 82 1022.4
20260509182658 57 94 3.0 5.0 0.00 0.00 0.00 81 1022.4
20260509182158 56 16 1.0 5.0 0.00 0.00 0.00 81 1022.5
20260509181658 56 37 1.0 5.0 0.00 0.00 0.00 82 1022.5
20260509180158 56 6 2.0 4.0 0.00 0.00 0.00 82 1022.7
20260509175658 56 29 2.0 4.0 0.00 0.00 0.00 83 1022.6
20260509175158 56 86 2.0 4.0 0.00 0.00 0.00 82 1022.6
20260509174658 56 72 2.0 4.0 0.00 0.00 0.00 82 1022.6
20260509174157 56 66 2.0 4.0 0.00 0.00 0.00 82 1022.7
20260509173657 56 71 1.0 3.0 0.00 0.00 0.00 82 1022.7
20260509173157 56 20 2.0 4.0 0.00 0.00 0.00 82 1022.7
20260509172657 56 65 2.0 5.0 0.00 0.00 0.00 83 1022.7
20260509172157 56 77 2.0 5.0 0.00 0.00 0.00 83 1022.7
20260509171157 55 84 3.0 5.0 0.00 0.00 0.00 82 1022.7
20260509170657 55 74 5.0 6.0 0.00 0.00 0.00 82 1022.7
20260509170157 55 113 2.0 6.0 0.00 0.00 0.00 83 1022.8
20260509165657 55 67 4.0 5.0 0.00 0.00 0.00 82 1022.8
20260509165157 55 98 3.0 5.0 0.00 0.00 0.00 84 1022.8
20260509164657 55 74 3.0 4.0 0.00 0.00 0.00 83 1022.8
20260509164156 55 100 2.0 4.0 0.00 0.00 0.00 82 1022.8
20260509163656 55 110 3.0 4.0 0.00 0.00 0.00 81 1022.8
20260509163157 55 96 3.0 4.0 0.00 0.00 0.00 81 1022.8
20260509162157 55 35 3.0 5.0 0.00 0.00 0.00 80 1022.9
20260509161656 56 79 3.0 5.0 0.00 0.00 0.00 79 1023.0
20260509161156 57 89 2.0 4.0 0.00 0.00 0.00 78 1023.0
20260509160656 57 115 4.0 4.0 0.00 0.00 0.00 77 1023.1
20260509160156 57 88 3.0 5.0 0.00 0.00 0.00 76 1023.2
20260509155655 56 141 1.0 5.0 0.00 0.00 0.00 77 1023.2
20260509155156 56 150 1.0 3.0 0.00 0.00 0.00 77 1023.2
20260509154156 56 266 0.0 4.0 0.00 0.00 0.00 76 1023.4
20260509153655 56 144 2.0 3.0 0.00 0.00 0.00 78 1023.3
20260509153156 56 158 2.0 4.0 0.00 0.00 0.00 79 1023.3
20260509152655 56 219 2.0 4.0 0.00 0.00 0.00 78 1023.3
20260509152155 56 167 2.0 3.0 0.00 0.00 0.00 79 1023.3
20260509151155 55 145 0.0 3.0 0.00 0.00 0.00 81 1023.1
20260509150655 55 159 0.0 3.0 0.00 0.00 0.00 81 1023.2
20260509150155 54 203 1.0 3.0 0.00 0.00 0.00 82 1023.3
20260509145655 54 219 0.0 3.0 0.00 0.00 0.00 82 1023.4
20260509145155 54 153 1.0 4.0 0.00 0.00 0.00 83 1023.4
20260509144654 53 143 1.0 4.0 0.00 0.00 0.00 85 1023.3
20260509144154 53 114 4.0 4.0 0.00 0.00 0.00 84 1023.4
20260509143654 53 148 3.0 4.0 0.00 0.00 0.00 84 1023.5
20260509143154 53 152 1.0 4.0 0.00 0.00 0.00 85 1023.4
20260509142654 53 158 2.0 3.0 0.00 0.00 0.00 85 1023.3
20260509142154 53 113 1.0 3.0 0.00 0.00 0.00 85 1023.3
20260509141654 52 131 1.0 3.0 0.00 0.00 0.00 86 1023.4